Regional Weather Roundup
Issued by NWS

Home | Current Version | Previous Version | Text Only | Print | Product List | Glossary Off
Versions: 1 2 3 4 5 6 7 8 9 10 11 12 13 14 15 16 17 18 19 20 21 22 23 24 25 26 27 28 29 30 31 32 33 34 35 36 37 38 39 40 41 42 43 44 45 46 47 48 49 50

000
ASUS43 KLSX 300859
RWRMO

WEATHER SUMMARY FOR MISSOURI
NATIONAL WEATHER SERVICE SPRINGFIELD MO
400 AM CDT SUN APR 30 2017

NOTE: "FAIR" INDICATES FEW OR NO CLOUDS BELOW 12,000 FEET WITH NO
       SIGNIFICANT WEATHER AND/OR OBSTRUCTIONS TO VISIBILITY.
       CURRENT SKY AND/OR WEATHER CONDITIONS ARE NOT AVAILABLE FOR
       CHILLICOTHE AND FARMINGTON.

MOZ001>031-035>038-043-044-053-054-301000-
...NORTHERN AND WESTERN MISSOURI...

CITY           SKY/WX    TMP DP  RH WIND       PRES   REMARKS
KANSAS CTY INT LGT RAIN  42  41  96 NE18      29.71F FOG
KANSAS C DTWN  CLOUDY   N/A N/A N/A NE13      29.69F FOG
LEE`S SUMMIT   CLOUDY    45  45 100 N13       29.67F FOG
ST JOSEPH      LGT RAIN  42  42 100 NE17G29   29.74F
CHILLICOTHE      N/A     44  43  96 N15G25    29.74S
KIRKSVILLE     LGT RAIN  44  18  35 E28G47    29.63F

$$
MOZ066>068-077>081-088>096-101>105-301000-
...SOUTHWEST MISSOURI...

CITY           SKY/WX    TMP DP  RH WIND       PRES   REMARKS
SPRINGFIELD    TSTM      63  62  97 SE12      29.63R
JOPLIN         CLOUDY    65  63  93 E13       29.56F

$$
MOZ032>034-039>042-045>050-055>058-069>072-301000-
...CENTRAL MISSOURI...

CITY           SKY/WX    TMP DP  RH WIND       PRES   REMARKS
COLUMBIA       LGT RAIN  48  48 100 E8        29.77F
JEFFERSON CITY LGT RAIN  51  47  86 SE5       29.80F
ROLLA          RAIN      61  61 100 NE14      29.72F
SEDALIA        CLOUDY    51  51 100 E23G39    29.59F
WHITEMAN AFB   CLOUDY    52  52 100 NE8       29.59F
OSAGE BEACH    CLOUDY    55  54  96 E10       29.62F

$$
MOZ051-052-059>065-301000-
...EAST CENTRAL MISSOURI...

CITY           SKY/WX    TMP DP  RH WIND       PRES   REMARKS
ST LOUIS INTL  HVY RAIN  51  49  92 NW7       29.83R FOG
SPIRIT OF STL  HVY RAIN  49  49 100 N6        29.83S FOG
ST CHARLES     HVY RAIN  49  49 100 NW7       29.83S FOG

$$
MOZ072>076-082>087-097>100-106>115-301000-
...SOUTH CENTRAL AND SOUTHEAST MISSOURI...

CITY           SKY/WX    TMP DP  RH WIND       PRES   REMARKS
CAPE GIRARDEAU RAIN      65  62  90 W13G23    29.82R FOG
FARMINGTON     TSTM      62  61  96 W7        29.81R
POPLAR BLUFF   RAIN      65  65 100 SE3       29.80R FOG

$$



USA.gov is the U.S. government's official web portal to all federal, state and local government web resources and services.